Simultaneous Nadir Overpasses (SNOs) Predictions

Prediction of SNOs between NOAA-15 and METOP-C Satellite Orbit:

Table of predicted SNOs for the next 14.0 days since TLE Epoch: 9/7/2024
Index Date (NOAA-15) Time (NOAA-15) Lat,Lon (NOAA-15) SZA (NOAA-15 ) Date (METOP-C) Time (METOP-C) Lat,Lon (METOP-C) SZA (METOP-C ) Distance(km) Time Diff (sec)
1 09/09/2024 05:45:02 -81.04, -48.32 102.12 09/09/2024 05:43:52 -81.03, -48.17 102.14 2.83 70
2 09/09/2024 06:35:31 81.04, 119.19 77.91 09/09/2024 06:34:33 81.03, 119.25 77.89 0.96 58
3 09/09/2024 07:26:01 -81.03, -73.41 102.08 09/09/2024 07:25:13 -81.04, -73.26 102.08 2.69 48
4 09/09/2024 08:16:31 81.05, 93.73 77.92 09/09/2024 08:15:55 81.03, 93.79 77.90 2.10 36
5 09/09/2024 09:07:01 -81.04, -98.87 102.07 09/09/2024 09:06:35 -81.04, -98.72 102.07 2.72 26
6 09/09/2024 09:57:30 81.04, 68.63 77.96 09/09/2024 09:57:16 81.04, 68.70 77.96 1.18 14
7 09/09/2024 10:48:00 -81.04,-123.96 102.03 09/09/2024 10:47:56 -81.05,-123.81 102.01 2.80 4
8 09/09/2024 11:38:30 81.05, 43.17 77.97 09/09/2024 11:38:38 81.04, 43.24 77.97 2.02 8
9 09/09/2024 12:29:00 -81.05,-149.42 102.02 09/09/2024 12:29:18 -81.04,-149.27 102.00 2.65 18
10 09/09/2024 13:19:29 81.04, 18.07 78.01 09/09/2024 13:19:59 81.05, 18.15 78.03 1.45 30
11 09/09/2024 14:09:59 -81.04,-174.51 101.98 09/09/2024 14:10:39 -81.05,-174.36 101.94 2.94 40
12 09/09/2024 15:00:29 81.05, -7.39 78.02 09/09/2024 15:01:21 81.04, -7.31 78.04 2.01 52
13 09/09/2024 15:50:59 -81.05, 160.04 101.97 09/09/2024 15:52:01 -81.05, 160.19 101.93 2.62 62



Historial Predications of SNOs between NOAA-15 and METOP-C
